Weather History for KBRL - January, 2014

Change the Weather History Date:

Thursday, January 9, 2014

  Actual Average Record
Temperature  
Mean Temperature 19 °F 26 °F  
Max Temperature 29 °F 34 °F 62 °F (1939)
Min Temperature 9 °F 17 °F -14 °F (1982)
Degree Days  
Heating Degree Days 46 39  
Month to date heating degree days 504 351  
Since 1 July heating degree days 3021 2537  
Cooling Degree Days 0 0  
Month to date cooling degree days 0 0  
Year to date cooling degree days 0 0  
Moisture  
Dew Point 15 °F    
Average Humidity 78    
Maximum Humidity 92    
Minimum Humidity 63    
Precipitation  
Precipitation T in 0.04 in 0.60 in (1957)
Month to date precipitation 0.08 0.39  
Year to date precipitation 0.08 0.39  
Sea Level Pressure  
Sea Level Pressure 30.28 in    
Wind  
Wind Speed 6 mph (ESE)    
Max Wind Speed 12 mph    
Max Gust Speed 14 mph    
Visibility 5 miles    
Events Snow    
T = Trace of Precipitation, MM = Missing Value Source: NWS Daily Summary

Daily Weather History Graph

Daily Weather History Graph

Search for Another Location

Airport or City:

Trip Planner

Search our weather history database for the weather conditions in past years. The results will help you decide how hot, cold, wet, or windy it might be!

Date:

Astronomy

Jan. 09, 2014 Rise Set
Actual Time 7:28 AM CST 4:55 PM CST
Civil Twilight 6:57 AM CST 5:25 PM CST
Nautical Twilight 6:23 AM CST 5:59 PM CST
Astronomical Twilight 5:50 AM CST 6:32 PM CST
Moon 12:23 PM CST (1/9) 1:35 AM CST (1/9)
Length of Visible Light 10h 27m
Length of Day
9h 26m
Waxing Gibbous, 66% of the Moon is Illuminated
Jan 9
Waxing Gibbous
Jan 15
Full
Jan 23
Last Quarter
Jan 30
New
Feb 6
First Quarter

Hourly Weather History & Observations

Time (CST) Temp. Windchill Dew Point Humidity Pressure Visibility Wind Dir Wind Speed Gust Speed Precip Events Conditions
12:53 AM 10.0 °F -0.9 °F -0.0 °F 64% 30.50 in 10.0 mi ENE 6.9 mph - N/A   Overcast
1:53 AM 10.0 °F -0.9 °F 1.9 °F 70% 30.49 in 10.0 mi ENE 6.9 mph - N/A   Overcast
2:53 AM 10.9 °F 0.2 °F 3.0 °F 70% 30.48 in 10.0 mi ENE 6.9 mph - N/A   Overcast
3:53 AM 10.9 °F 2.9 °F 1.9 °F 67% 30.47 in 10.0 mi East 4.6 mph - N/A   Mostly Cloudy
4:53 AM 10.0 °F 0.4 °F 1.9 °F 70% 30.45 in 10.0 mi East 5.8 mph - N/A   Mostly Cloudy
5:53 AM 10.9 °F 1.4 °F 3.0 °F 70% 30.43 in 10.0 mi East 5.8 mph - N/A   Overcast
6:53 AM 12.0 °F 2.7 °F 3.9 °F 70% 30.41 in 10.0 mi East 5.8 mph - N/A   Overcast
7:53 AM 14.0 °F 3.9 °F 6.1 °F 71% 30.40 in 10.0 mi East 6.9 mph - N/A   Overcast
8:09 AM 14.0 °F 3.9 °F 7.0 °F 74% 30.35 in 10.0 mi ESE 6.9 mph - N/A   Overcast
8:19 AM 14.0 °F 2.9 °F 8.1 °F 77% 30.35 in 2.5 mi East 8.1 mph - 0.00 in Snow Light Snow
8:31 AM 14.0 °F 2.9 °F 8.1 °F 77% 30.35 in 4.0 mi East 8.1 mph - 0.00 in   Haze
8:53 AM 15.1 °F 6.4 °F 9.0 °F 77% 30.38 in 2.0 mi East 5.8 mph - 0.00 in Snow Light Snow
9:02 AM 15.1 °F 4.2 °F 10.0 °F 80% 30.34 in 1.2 mi East 8.1 mph - 0.00 in Snow Light Snow
9:08 AM 15.1 °F 5.2 °F 10.0 °F 80% 30.34 in 2.0 mi East 6.9 mph - 0.00 in Snow Light Snow
9:17 AM 15.1 °F 5.2 °F 10.0 °F 80% 30.34 in 5.0 mi East 6.9 mph - 0.00 in   Haze
9:30 AM 16.0 °F 5.3 °F 10.9 °F 81% 30.34 in 2.0 mi East 8.1 mph - 0.00 in Snow Light Snow
9:53 AM 17.1 °F 5.8 °F 12.0 °F 81% 30.37 in 2.0 mi East 9.2 mph - 0.00 in Snow Light Snow
10:03 AM 17.1 °F 5.8 °F 12.9 °F 84% 30.33 in 1.5 mi ESE 9.2 mph - 0.00 in Snow Light Snow
10:19 AM 18.0 °F 8.7 °F 14.0 °F 84% 30.33 in 3.0 mi ESE 6.9 mph - 0.00 in Snow Light Snow
10:53 AM 19.0 °F 10.0 °F 14.0 °F 81% 30.36 in 8.0 mi ESE 6.9 mph - 0.00 in   Overcast
11:45 AM 19.9 °F 12.1 °F 16.0 °F 85% 30.28 in 2.0 mi SE 5.8 mph - 0.00 in Snow Light Snow
11:53 AM 19.9 °F 12.1 °F 16.0 °F 85% 30.32 in 2.0 mi ESE 5.8 mph - 0.00 in Snow Light Snow
12:03 PM 19.9 °F 13.4 °F 16.0 °F 85% 30.27 in 4.0 mi SE 4.6 mph - 0.00 in   Overcast
12:25 PM 19.9 °F 11.1 °F 17.1 °F 89% 30.25 in 2.0 mi SE 6.9 mph - 0.00 in   Overcast
12:31 PM 19.9 °F 12.1 °F 17.1 °F 89% 30.25 in 1.8 mi SE 5.8 mph - 0.00 in   Overcast
12:42 PM 19.9 °F 12.1 °F 17.1 °F 89% 30.24 in 2.5 mi ESE 5.8 mph - 0.00 in   Overcast
12:53 PM 21.0 °F 13.4 °F 17.1 °F 85% 30.27 in 3.0 mi ESE 5.8 mph - 0.00 in   Overcast
1:53 PM 21.9 °F 14.5 °F 18.0 °F 85% 30.24 in 4.0 mi SE 5.8 mph - N/A   Overcast
2:42 PM 21.9 °F 15.7 °F 19.0 °F 89% 30.19 in 2.5 mi SE 4.6 mph - N/A   Overcast
2:53 PM 21.9 °F 14.5 °F 19.0 °F 89% 30.23 in 3.0 mi ESE 5.8 mph - N/A   Overcast
3:41 PM 23.0 °F 17.0 °F 19.9 °F 88% 30.19 in 4.0 mi ESE 4.6 mph - N/A   Overcast
3:50 PM 23.0 °F 18.4 °F 19.4 °F 86% 30.19 in 3.0 mi SE 3.5 mph - N/A   Overcast
3:53 PM 23.0 °F 17.0 °F 19.9 °F 88% 30.23 in 3.0 mi ESE 4.6 mph - N/A   Overcast
4:20 PM 23.0 °F 17.0 °F 19.9 °F 88% 30.18 in 3.0 mi SE 4.6 mph - N/A   Overcast
5:53 PM 24.1 °F 18.2 °F 21.0 °F 88% 30.20 in 6.0 mi SE 4.6 mph - N/A   Overcast
6:53 PM 24.1 °F 17.0 °F 21.9 °F 91% 30.19 in 6.0 mi SSE 5.8 mph - N/A   Overcast
7:53 PM 25.0 °F 19.3 °F 23.0 °F 92% 30.19 in 5.0 mi SSE 4.6 mph - N/A   Overcast
8:53 PM 26.1 °F 19.4 °F 24.1 °F 92% 30.17 in 4.0 mi South 5.8 mph - N/A   Overcast
9:00 PM 26.1 °F 19.4 °F 24.1 °F 92% 30.13 in 4.0 mi South 5.8 mph - N/A   Overcast
9:53 PM 27.0 °F 20.5 °F 25.0 °F 92% 30.15 in 4.0 mi South 5.8 mph - N/A   Overcast
10:00 PM 27.0 °F 19.5 °F 25.0 °F 92% 30.12 in 4.0 mi South 6.9 mph - N/A   Overcast
10:32 PM 28.0 °F 20.0 °F 26.1 °F 92% 30.12 in 3.0 mi South 8.1 mph - N/A   Overcast
10:53 PM 28.0 °F 20.0 °F 26.1 °F 92% 30.14 in 3.0 mi South 8.1 mph - N/A   Overcast
11:32 PM 28.0 °F 20.0 °F 26.1 °F 92% 30.10 in 4.0 mi South 8.1 mph - N/A   Overcast
11:53 PM 28.0 °F 19.3 °F 27.0 °F 96% 30.12 in 4.0 mi South 9.2 mph - N/A   Overcast